When you browse on this site, cookies collect data to enhance your experience and personalize the content and advertising you see.
Visit our Privacy Policy to learn more. By continuing to use the site, you agree to this use of cookies and data.
  • In Sweden
  • List of Countries
  • For 7 days
  • Water Temperature
  • Satellite Maps
  • Weather Map
  • Weather Widgets
  • user-avatar
    Login

    Hourly Weather Belfast

    Today, 26 March, Tuesday

    Time Temperature Precipitation Wind Pressure Humidity
    00:00 +5°C° 0 mm 1 mps 775 mmHg 90%
    01:00 +5°C° 0 mm 1 mps 774 mmHg 91%
    02:00 +5°C° 0 mm 1 mps 774 mmHg 91%
    03:00 +4°C° 0 mm 2 mps 774 mmHg 92%
    04:00 +4°C° 0 mm 2 mps 774 mmHg 93%
    05:00 +3°C° 0 mm 2 mps 774 mmHg 93%
    06:00 +3°C° 0 mm 2 mps 774 mmHg 94%
    07:00 +3°C° 0 mm 3 mps 774 mmHg 89%
    08:00 +5°C° 0 mm 3 mps 774 mmHg 85%
    09:00 +7°C° 0 mm 3 mps 774 mmHg 81%
    10:00 +8°C° 0 mm 3 mps 774 mmHg 78%
    11:00 +10°C° 0 mm 3 mps 773 mmHg 75%
    12:00 +11°C° 0 mm 4 mps 773 mmHg 72%
    13:00 +10°C° 0 mm 3 mps 773 mmHg 74%
    14:00 +10°C° 0 mm 3 mps 773 mmHg 75%
    15:00 +10°C° 0 mm 3 mps 773 mmHg 77%
    16:00 +10°C° 0 mm 3 mps 773 mmHg 79%
    17:00 +9°C° 0 mm 3 mps 773 mmHg 80%
    18:00 +9°C° 0 mm 2 mps 773 mmHg 81%
    19:00 +8°C° 0 mm 2 mps 773 mmHg 83%
    20:00 +8°C° 0 mm 2 mps 774 mmHg 84%
    21:00 +8°C° 0 mm 2 mps 774 mmHg 85%
    22:00 +7°C° 0 mm 2 mps 774 mmHg 88%
    23:00 +5°C° 0 mm 3 mps 774 mmHg 91%

    Tomorrow, 27 March, Wednesday

    Time Temperature Precipitation Wind Pressure Humidity
    00:00 +4°C° 0 mm 3 mps 774 mmHg 94%
    01:00 +4°C° 0 mm 3 mps 774 mmHg 94%
    02:00 +3°C° 0 mm 3 mps 774 mmHg 94%
    03:00 +3°C° 0 mm 3 mps 773 mmHg 94%
    04:00 +3°C° 0 mm 3 mps 773 mmHg 94%
    05:00 +3°C° 0 mm 3 mps 773 mmHg 95%
    06:00 +3°C° 0 mm 3 mps 773 mmHg 95%
    07:00 +4°C° 0 mm 3 mps 774 mmHg 92%
    08:00 +5°C° 0 mm 3 mps 774 mmHg 89%
    09:00 +7°C° 0 mm 3 mps 774 mmHg 86%
    10:00 +8°C° 0 mm 3 mps 774 mmHg 84%
    11:00 +9°C° 0 mm 3 mps 774 mmHg 81%
    12:00 +10°C° 0 mm 3 mps 775 mmHg 79%
    13:00 +10°C° 0 mm 3 mps 775 mmHg 78%
    14:00 +10°C° 0 mm 3 mps 775 mmHg 78%
    15:00 +10°C° 0 mm 3 mps 775 mmHg 77%
    16:00 +10°C° 0 mm 3 mps 775 mmHg 79%
    17:00 +9°C° 0 mm 3 mps 775 mmHg 80%
    18:00 +9°C° 0 mm 2 mps 775 mmHg 82%
    19:00 +8°C° 0 mm 2 mps 775 mmHg 85%
    20:00 +7°C° 0 mm 2 mps 775 mmHg 88%
    21:00 +6°C° 0 mm 2 mps 776 mmHg 92%
    22:00 +6°C° 0 mm 2 mps 776 mmHg 92%
    23:00 +5°C° 0 mm 2 mps 776 mmHg 93%

    Day after tomorrow, 28 March, Thursday

    Time Temperature Precipitation Wind Pressure Humidity
    00:00 +5°C° 0 mm 2 mps 776 mmHg 94%
    01:00 +5°C° 0 mm 2 mps 776 mmHg 94%
    02:00 +4°C° 0 mm 2 mps 776 mmHg 95%
    03:00 +4°C° 0 mm 2 mps 776 mmHg 95%
    04:00 +4°C° 0 mm 2 mps 776 mmHg 95%
    05:00 +4°C° 0 mm 2 mps 776 mmHg 95%
    06:00 +3°C° 0 mm 2 mps 776 mmHg 95%
    07:00 +5°C° 0 mm 2 mps 776 mmHg 92%
    08:00 +6°C° 0 mm 2 mps 776 mmHg 88%
    09:00 +8°C° 0 mm 2 mps 776 mmHg 85%
    10:00 +9°C° 0 mm 2 mps 776 mmHg 80%
    11:00 +12°C° 0 mm 2 mps 776 mmHg 75%
    12:00 +13°C° 0 mm 2 mps 776 mmHg 71%
    13:00 +13°C° 0 mm 3 mps 776 mmHg 70%
    14:00 +13°C° 0 mm 3 mps 776 mmHg 70%
    15:00 +13°C° 0 mm 3 mps 775 mmHg 70%
    16:00 +12°C° 0 mm 3 mps 775 mmHg 74%
    17:00 +12°C° 0 mm 3 mps 774 mmHg 79%
    18:00 +11°C° 0 mm 3 mps 774 mmHg 83%
    19:00 +9°C° 0 mm 3 mps 774 mmHg 86%
    20:00 +8°C° 0 mm 3 mps 774 mmHg 90%
    21:00 +7°C° 0 mm 3 mps 774 mmHg 93%
    22:00 +5°C° 0 mm 3 mps 774 mmHg 93%
    23:00 +5°C° 0 mm 3 mps 774 mmHg 93%

    29 March, Friday

    Time Temperature Precipitation Wind Pressure Humidity
    00:00 +5°C° 0 mm 3 mps 774 mmHg 93%
    01:00 +5°C° 0 mm 3 mps 773 mmHg 93%
    02:00 +5°C° 0 mm 3 mps 773 mmHg 94%
    03:00 +5°C° 0 mm 3 mps 772 mmHg 95%
    04:00 +4°C° 0 mm 3 mps 772 mmHg 93%
    05:00 +4°C° 0 mm 3 mps 772 mmHg 92%
    06:00 +3°C° 0 mm 4 mps 771 mmHg 91%
    07:00 +5°C° 0 mm 4 mps 771 mmHg 84%
    08:00 +6°C° 0 mm 4 mps 771 mmHg 76%
    09:00 +7°C° 0 mm 4 mps 771 mmHg 69%
    10:00 +8°C° 0 mm 4 mps 771 mmHg 66%
    11:00 +11°C° 0 mm 4 mps 771 mmHg 64%
    12:00 +13°C° 0 mm 4 mps 771 mmHg 61%
    13:00 +13°C° 0 mm 4 mps 770 mmHg 62%
    14:00 +14°C° 0 mm 4 mps 770 mmHg 63%
    15:00 +14°C° 0 mm 4 mps 769 mmHg 64%
    16:00 +13°C° 0 mm 3 mps 769 mmHg 69%
    17:00 +12°C° 0 mm 3 mps 769 mmHg 74%
    18:00 +13°C° 0 mm 2 mps 769 mmHg 79%
    19:00 +10°C° 0 mm 2 mps 769 mmHg 83%
    20:00 +9°C° 0 mm 2 mps 769 mmHg 86%
    21:00 +8°C° 0 mm 2 mps 769 mmHg 90%
    22:00 +8°C° 0 mm 1 mps 769 mmHg 90%
    23:00 +8°C° 0 mm 1 mps 769 mmHg 90%

    30 March, Saturday

    Time Temperature Precipitation Wind Pressure Humidity
    00:00 +8°C° 0 mm 1 mps 769 mmHg 91%
    01:00 +7°C° 0 mm 1 mps 769 mmHg 92%
    02:00 +7°C° 0 mm 1 mps 768 mmHg 92%
    03:00 +7°C° 0 mm 1 mps 768 mmHg 93%
    04:00 +7°C° 0 mm 1 mps 768 mmHg 93%
    05:00 +7°C° 0 mm 1 mps 768 mmHg 94%
    06:00 +6°C° 0 mm 1 mps 768 mmHg 94%
    07:00 +7°C° 0 mm 2 mps 768 mmHg 91%
    08:00 +8°C° 0 mm 2 mps 769 mmHg 88%
    09:00 +10°C° 0 mm 3 mps 769 mmHg 85%
    10:00 +10°C° 0 mm 4 mps 769 mmHg 83%
    11:00 +8°C° 0 mm 5 mps 769 mmHg 81%
    12:00 +8°C° 0 mm 6 mps 770 mmHg 79%
    13:00 +8°C° 0 mm 6 mps 770 mmHg 75%
    14:00 +8°C° 0 mm 7 mps 770 mmHg 71%
    15:00 +8°C° 0 mm 7 mps 770 mmHg 67%
    16:00 +6°C° 0 mm 7 mps 770 mmHg 66%
    17:00 +5°C° 0 mm 7 mps 770 mmHg 66%
    18:00 +4°C° 0 mm 7 mps 770 mmHg 66%
    19:00 +4°C° 0 mm 7 mps 771 mmHg 67%
    20:00 +4°C° 0 mm 6 mps 771 mmHg 67%
    21:00 +3°C° 0 mm 6 mps 772 mmHg 68%
    22:00 +3°C° 0 mm 6 mps 772 mmHg 69%
    23:00 +3°C° 0 mm 6 mps 773 mmHg 69%

    31 March, Sunday

    Time Temperature Precipitation Wind Pressure Humidity
    00:00 +3°C° 0 mm 5 mps 773 mmHg 70%
    01:00 +3°C° 0 mm 6 mps 773 mmHg 69%
    02:00 +3°C° 0 mm 6 mps 773 mmHg 69%
    03:00 +3°C° 0 mm 7 mps 774 mmHg 69%
    04:00 +2°C° 0 mm 6 mps 774 mmHg 72%
    05:00 +1°C° 0 mm 6 mps 774 mmHg 74%
    06:00 +1°C° 0 mm 6 mps 775 mmHg 77%
    07:00 +1°C° 0 mm 6 mps 775 mmHg 73%
    08:00 +2°C° 0 mm 6 mps 776 mmHg 69%
    09:00 +3°C° 0 mm 6 mps 776 mmHg 66%
    10:00 +3°C° 0 mm 6 mps 776 mmHg 64%
    11:00 +4°C° 0 mm 6 mps 776 mmHg 62%
    12:00 +6°C° 0 mm 5 mps 776 mmHg 60%
    13:00 +6°C° 0 mm 5 mps 775 mmHg 60%
    14:00 +6°C° 0 mm 5 mps 775 mmHg 59%
    15:00 +6°C° 0 mm 5 mps 775 mmHg 59%
    16:00 +6°C° 0 mm 4 mps 775 mmHg 62%
    17:00 +5°C° 0 mm 3 mps 774 mmHg 65%
    18:00 +5°C° 0 mm 3 mps 774 mmHg 69%
    19:00 +4°C° 0 mm 3 mps 774 mmHg 71%
    20:00 +3°C° 0 mm 3 mps 774 mmHg 74%
    21:00 +2°C° 0 mm 3 mps 775 mmHg 76%
    22:00 +2°C° 0 mm 3 mps 774 mmHg 78%
    23:00 +2°C° 0 mm 3 mps 774 mmHg 79%
    Show more